Tiempo cada hora Ali

Hoy, 28 Julio, Miércoles

Tiempo Temperatura Precipitaciones Viento Presión Humedad
00:00 +25°C° 0 mm 2 mps 705 mmHg 40%
01:00 +25°C° 0 mm 2 mps 705 mmHg 42%
02:00 +24°C° 0 mm 2 mps 704 mmHg 44%
03:00 +24°C° 0 mm 2 mps 704 mmHg 44%
04:00 +24°C° 0 mm 2 mps 705 mmHg 44%
05:00 +24°C° 0 mm 2 mps 705 mmHg 45%
06:00 +26°C° 0 mm 2 mps 705 mmHg 39%
07:00 +28°C° 0 mm 3 mps 705 mmHg 34%
08:00 +30°C° 0 mm 3 mps 706 mmHg 29%
09:00 +33°C° 0 mm 3 mps 706 mmHg 26%
10:00 +34°C° 0 mm 4 mps 706 mmHg 23%
11:00 +35°C° 0 mm 4 mps 706 mmHg 20%
12:00 +36°C° 0 mm 5 mps 705 mmHg 19%
13:00 +37°C° 0 mm 5 mps 705 mmHg 18%
14:00 +37°C° 0 mm 5 mps 705 mmHg 17%
15:00 +37°C° 0 mm 5 mps 704 mmHg 17%
16:00 +36°C° 0 mm 6 mps 704 mmHg 17%
17:00 +36°C° 0 mm 6 mps 704 mmHg 17%
18:00 +33°C° 0 mm 5 mps 704 mmHg 19%
19:00 +30°C° 0 mm 5 mps 704 mmHg 21%
20:00 +27°C° 0 mm 4 mps 705 mmHg 22%
21:00 +26°C° 0 mm 3 mps 704 mmHg 23%
22:00 +24°C° 0 mm 3 mps 704 mmHg 24%
23:00 +23°C° 0 mm 2 mps 704 mmHg 24%

Mañana, 29 Julio, Jueves

Tiempo Temperatura Precipitaciones Viento Presión Humedad
00:00 +21°C° 0 mm 2 mps 704 mmHg 24%
01:00 +21°C° 0 mm 2 mps 704 mmHg 25%
02:00 +20°C° 0 mm 3 mps 704 mmHg 25%
03:00 +20°C° 0 mm 3 mps 704 mmHg 25%
04:00 +20°C° 0 mm 3 mps 704 mmHg 26%
05:00 +20°C° 0 mm 3 mps 703 mmHg 26%
06:00 +24°C° 0 mm 3 mps 704 mmHg 23%
07:00 +26°C° 0 mm 3 mps 704 mmHg 20%
08:00 +29°C° 0 mm 3 mps 704 mmHg 17%
09:00 +31°C° 0 mm 3 mps 704 mmHg 15%
10:00 +33°C° 0 mm 3 mps 704 mmHg 14%
11:00 +35°C° 0 mm 3 mps 703 mmHg 13%
12:00 +36°C° 0 mm 3 mps 703 mmHg 13%
13:00 +37°C° 0 mm 4 mps 703 mmHg 13%
14:00 +38°C° 0 mm 4 mps 702 mmHg 12%
15:00 +38°C° 0 mm 4 mps 703 mmHg 13%
16:00 +37°C° 0 mm 5 mps 703 mmHg 14%
17:00 +36°C° 0 mm 5 mps 703 mmHg 15%
18:00 +33°C° 0 mm 5 mps 704 mmHg 18%
19:00 +30°C° 0 mm 4 mps 704 mmHg 20%
20:00 +27°C° 0 mm 4 mps 704 mmHg 22%
21:00 +26°C° 0 mm 3 mps 705 mmHg 22%
22:00 +25°C° 0 mm 3 mps 705 mmHg 23%
23:00 +24°C° 0 mm 3 mps 705 mmHg 23%

Pasado mañana, 30 Julio, Viernes

Tiempo Temperatura Precipitaciones Viento Presión Humedad
00:00 +23°C° 0 mm 2 mps 706 mmHg 23%
01:00 +23°C° 0 mm 2 mps 706 mmHg 24%
02:00 +23°C° 0 mm 2 mps 706 mmHg 24%
03:00 +23°C° 0 mm 2 mps 706 mmHg 25%
04:00 +23°C° 0 mm 2 mps 707 mmHg 26%
05:00 +23°C° 0 mm 2 mps 707 mmHg 26%
06:00 +25°C° 0 mm 2 mps 708 mmHg 25%
07:00 +27°C° 0 mm 3 mps 709 mmHg 23%
08:00 +29°C° 0 mm 3 mps 710 mmHg 21%
09:00 +30°C° 0 mm 4 mps 710 mmHg 22%
10:00 +30°C° 0 mm 4 mps 710 mmHg 22%
11:00 +32°C° 0 mm 5 mps 710 mmHg 22%
12:00 +33°C° 0 mm 4 mps 710 mmHg 22%
13:00 +33°C° 0 mm 4 mps 710 mmHg 21%
14:00 +33°C° 0 mm 3 mps 709 mmHg 21%
15:00 +33°C° 0 mm 3 mps 709 mmHg 20%
16:00 +33°C° 0 mm 3 mps 709 mmHg 20%
17:00 +34°C° 0 mm 3 mps 709 mmHg 20%
18:00 +30°C° 0 mm 3 mps 709 mmHg 22%
19:00 +28°C° 0 mm 3 mps 709 mmHg 24%
20:00 +26°C° 0 mm 3 mps 710 mmHg 26%
21:00 +25°C° 0 mm 2 mps 710 mmHg 29%
22:00 +24°C° 0 mm 2 mps 710 mmHg 31%
23:00 +23°C° 0 mm 2 mps 710 mmHg 33%

31 Julio, Sábado

Tiempo Temperatura Precipitaciones Viento Presión Humedad
00:00 +21°C° 0 mm 2 mps 709 mmHg 34%
01:00 +20°C° 0 mm 2 mps 709 mmHg 35%
02:00 +19°C° 0 mm 2 mps 709 mmHg 37%
03:00 +20°C° 0 mm 1 mps 709 mmHg 38%
04:00 +20°C° 0 mm 1 mps 709 mmHg 40%
05:00 +19°C° 0 mm 1 mps 709 mmHg 41%
06:00 +21°C° 0 mm 2 mps 709 mmHg 38%
07:00 +25°C° 0 mm 3 mps 710 mmHg 34%
08:00 +27°C° 0 mm 3 mps 710 mmHg 30%
09:00 +30°C° 0 mm 4 mps 710 mmHg 27%
10:00 +33°C° 0 mm 5 mps 709 mmHg 23%
11:00 +35°C° 0 mm 5 mps 709 mmHg 20%
12:00 +35°C° 0 mm 5 mps 708 mmHg 18%
13:00 +36°C° 0 mm 5 mps 708 mmHg 16%
14:00 +37°C° 0 mm 5 mps 708 mmHg 14%
15:00 +37°C° 0 mm 5 mps 707 mmHg 13%
16:00 +37°C° 0 mm 4 mps 707 mmHg 13%
17:00 +36°C° 0 mm 4 mps 707 mmHg 12%
18:00 +34°C° 0 mm 3 mps 707 mmHg 15%
19:00 +30°C° 0 mm 3 mps 707 mmHg 17%
20:00 +27°C° 0 mm 2 mps 707 mmHg 20%
21:00 +26°C° 0 mm 2 mps 707 mmHg 22%
22:00 +25°C° 0 mm 2 mps 706 mmHg 24%
23:00 +24°C° 0 mm 2 mps 706 mmHg 26%

1 Agosto, Domingo

Tiempo Temperatura Precipitaciones Viento Presión Humedad
00:00 +23°C° 0 mm 2 mps 706 mmHg 27%
01:00 +23°C° 0 mm 2 mps 706 mmHg 28%
02:00 +21°C° 0 mm 2 mps 706 mmHg 28%
03:00 +21°C° 0 mm 2 mps 706 mmHg 29%
04:00 +21°C° 0 mm 2 mps 706 mmHg 29%
05:00 +20°C° 0 mm 2 mps 706 mmHg 29%
06:00 +24°C° 0 mm 2 mps 706 mmHg 25%
07:00 +27°C° 0 mm 2 mps 707 mmHg 21%
08:00 +30°C° 0 mm 2 mps 707 mmHg 18%
09:00 +32°C° 0 mm 2 mps 707 mmHg 16%
10:00 +34°C° 0 mm 3 mps 706 mmHg 15%
11:00 +36°C° 0 mm 3 mps 706 mmHg 14%
12:00 +37°C° 0 mm 3 mps 706 mmHg 14%
13:00 +38°C° 0 mm 3 mps 706 mmHg 13%
14:00 +39°C° 0 mm 3 mps 705 mmHg 12%
15:00 +40°C° 0 mm 4 mps 705 mmHg 11%
16:00 +40°C° 0 mm 4 mps 705 mmHg 11%
17:00 +40°C° 0 mm 4 mps 705 mmHg 10%
18:00 +36°C° 0 mm 3 mps 705 mmHg 12%
19:00 +33°C° 0 mm 3 mps 705 mmHg 14%
20:00 +29°C° 0 mm 3 mps 705 mmHg 15%
21:00 +28°C° 0 mm 3 mps 705 mmHg 16%
22:00 +27°C° 0 mm 3 mps 705 mmHg 17%
23:00 +25°C° 0 mm 3 mps 704 mmHg 18%

2 Agosto, Lunes

Tiempo Temperatura Precipitaciones Viento Presión Humedad
00:00 +25°C° 0 mm 3 mps 704 mmHg 19%
01:00 +25°C° 0 mm 3 mps 704 mmHg 19%
02:00 +25°C° 0 mm 3 mps 704 mmHg 19%
03:00 +24°C° 0 mm 3 mps 705 mmHg 20%
04:00 +24°C° 0 mm 3 mps 705 mmHg 21%
05:00 +24°C° 0 mm 3 mps 705 mmHg 21%
06:00 +26°C° 0 mm 3 mps 705 mmHg 19%
07:00 +29°C° 0 mm 3 mps 706 mmHg 16%
08:00 +33°C° 0 mm 3 mps 706 mmHg 13%
09:00 +35°C° 0 mm 3 mps 706 mmHg 12%
10:00 +36°C° 0 mm 3 mps 706 mmHg 10%
11:00 +38°C° 0 mm 2 mps 706 mmHg 9%
12:00 +39°C° 0 mm 3 mps 706 mmHg 9%
13:00 +41°C° 0 mm 4 mps 706 mmHg 9%
14:00 +41°C° 0 mm 5 mps 705 mmHg 8%
15:00 +41°C° 0 mm 5 mps 705 mmHg 9%
16:00 +40°C° 0 mm 6 mps 705 mmHg 10%
17:00 +40°C° 0 mm 6 mps 705 mmHg 10%
18:00 +36°C° 0 mm 5 mps 705 mmHg 13%
19:00 +33°C° 0 mm 4 mps 705 mmHg 16%
20:00 +29°C° 0 mm 3 mps 706 mmHg 19%
21:00 +28°C° 0 mm 2 mps 706 mmHg 21%
22:00 +26°C° 0 mm 2 mps 706 mmHg 22%
23:00 +25°C° 0 mm 2 mps 706 mmHg 24%
Mostrar más

Necesitamos Su Consentimiento

Meteoprog y nuestros Proveedores de Servicios pueden almacenar y acceder a sus datos personales como cookies, identificadores de dispositivo u otras tecnologías similares de su dispositivo y procesar dichos datos para personalizar contenido y anuncios, además de ofrecer funciones de redes sociales y analizar el tráfico.

  • Almacenar y/o acceder a información en su dispositivo

    Se puede almacenar o acceder a cookies, identificadores de dispositivo u otra información de su dispositivo para los fines anteriormente indicados.

  • Anuncios y contenido personalizados, medición de anuncios y contenido, percepciones del público, y desarrollo de productos

    Los anuncios y el contenido pueden personalizarse en base a su perfil. Se pueden añadir más datos para personalizar mejor los anuncios y contenidos. Se puede medir el rendimiento de los anuncios y contenidos. Se puede obtener la percepción sobre el público que ha visto los anuncios y contenidos. Dichos datos pueden usarse para desarrollar o mejorar la experiencia del usuario, sistemas y software.

Al hacer clic en ‘Estoy De Acuerdo’ usted permitirá el uso de las cookies, identificadores de dispositivo, balizas web u otras tecnologías similares indicadas. Su configuración puede cambiarse desde el navegador de su dispositivo.

Para ciertos fines, los intereses legítimos pueden ser considerados por encima del consentimiento. Puede leer más sobre ello en nuestra Política de Privacidad y Cookies.